国际通讯卫星 3-F4星 (INTELSAT 3-F4)

导读

INTELSAT 3-F4是国际通信卫星组织(ITSO)发射的第三代国际通信卫星,于1969年5月22日成功入轨。作为早期全球通信基础设施的重要组成部分,该卫星定位于地球同步轨道,设计用于提供跨洲际的通信转发服务,支持早期国际电话、电视转播等业务。目前该卫星已退役,成为空间碎片,仍在轨道上运行,它见证了全球卫星通信从起步到发展的关键历程。

基本信息
目录编号:
3947
目录名称:
INTELSAT 3-F4
国际标识:
1969-045A
轨道中心:
EARTH
卫星名称:
国际通讯卫星 3-F4星
卫星全名:
国际通讯卫星 3-F4星 (INTELSAT 3-F4)
卫星状态:
在轨 (已飞行20844 天)
发射日期:
1969-05-22 UTC
国别 :
(ITSO)
星等 :
--
轨道信息
数据来源 国际轨道数据 AOE轨道数据
星历时间 2026-06-16T08:16:13+0800
15小时前
查看轨道信息
2026-06-12T01:00:00+0800
4天前
查看轨道信息
半长轴 45299.746km 45299.243km
偏心率 0.0023735 0.0024016
轨道倾角 3.746° 3.757°
近地点辐角 79.753° 78.649°
升交点赤经 288.595° 288.600°
平近点角 98.770° 145.013°
近地点 38814.09km 38812.315km
远地点 39029.128km 39029.897km
周期 1599.202分钟 1599.176分钟
每日圈数 0.900449 0.900464
详细信息
卫星平台:
Intelsat
平衡模式:
自旋稳定
覆盖范围:
全球
运营商:
国际卫星通信公司
运营商所在国:
美国
制造商(研发单位):
天合汽车集团
制造商所在国:
美国
使用方式:
暂无
卫星简介
从1965年4月至1984年3月,国际通信卫星组织发射了5代、6种不同性能的卫星共计35颗,除6颗卫星因运载火箭和远地点发动机故障而发射失败外,其余29颗卫星均被送到了预定的静止轨道位置。1984年8月前后,国际通信卫星组织利用部署在大西洋、太平洋、印度洋上空的15颗国际通信卫星,为遍布世界各地170多个国家或地区提供电话、电传、电报、电视和数据传输等电信业务;该卫星已退役。
2D轨道图
3D轨道图
轨道高度分析图
轨道倾角分析图
轨道综合分析图
查看轨道综合分析图